Time,TemperatureF,DewpointF,PressureIn,WindDirection,WindDirectionDegrees,WindSpeedMPH,WindSpeedGustMPH,Humidity,HourlyPrecipIn,Conditions,Clouds,dailyrainin,SoftwareType,DateUTC
2013-04-21 00:02:00,38.8,32.5,30.16,NE,45,0.0,2.0,78,0.00,,,0.00,meteohub,2013-04-21 07:02:00,
2013-04-21 00:07:00,38.5,32.2,30.16,NE,45,0.0,2.0,78,0.00,,,0.00,meteohub,2013-04-21 07:07:00,
2013-04-21 00:12:00,38.3,32.0,30.15,South,180,1.0,2.0,78,0.00,,,0.00,meteohub,2013-04-21 07:12:00,
2013-04-21 00:17:00,37.9,31.6,30.16,South,180,2.0,2.0,78,0.00,,,0.00,meteohub,2013-04-21 07:17:00,
2013-04-21 00:22:00,37.8,31.8,30.16,SW,225,2.0,2.0,79,0.00,,,0.00,meteohub,2013-04-21 07:22:00,
2013-04-21 00:27:00,37.8,32.2,30.16,South,180,0.0,2.0,80,0.00,,,0.00,meteohub,2013-04-21 07:27:00,
2013-04-21 00:32:00,37.4,31.8,30.16,South,180,0.0,2.0,80,0.00,,,0.00,meteohub,2013-04-21 07:32:00,
2013-04-21 00:37:00,37.0,30.2,30.16,South,180,1.0,2.0,76,0.00,,,0.00,meteohub,2013-04-21 07:37:00,
2013-04-21 00:42:00,37.0,30.2,30.16,South,180,1.0,1.0,76,0.00,,,0.00,meteohub,2013-04-21 07:42:00,
2013-04-21 00:47:00,36.9,30.4,30.16,SE,135,2.0,2.0,77,0.00,,,0.00,meteohub,2013-04-21 07:47:00,
2013-04-21 00:52:00,36.9,30.6,30.17,SW,225,1.0,2.0,78,0.00,,,0.00,meteohub,2013-04-21 07:52:00,
2013-04-21 00:57:00,36.9,30.6,30.16,SW,225,0.0,2.0,78,0.00,,,0.00,meteohub,2013-04-21 07:57:00,
2013-04-21 01:02:00,36.9,30.6,30.16,SW,225,1.0,2.0,78,0.00,,,0.00,meteohub,2013-04-21 08:02:00,
2013-04-21 01:07:00,36.9,30.6,30.16,SW,225,1.0,1.0,78,0.00,,,0.00,meteohub,2013-04-21 08:07:00,
2013-04-21 01:12:00,36.7,30.6,30.16,SW,225,1.0,2.0,78,0.00,,,0.00,meteohub,2013-04-21 08:12:00,
2013-04-21 01:17:00,36.3,30.2,30.16,SW,225,0.0,2.0,78,0.00,,,0.00,meteohub,2013-04-21 08:17:00,
2013-04-21 01:22:00,36.1,30.0,30.17,SW,225,2.0,2.0,78,0.00,,,0.00,meteohub,2013-04-21 08:22:00,
2013-04-21 01:27:00,36.1,30.0,30.16,SW,225,1.0,2.0,78,0.00,,,0.00,meteohub,2013-04-21 08:27:00,
2013-04-21 01:32:00,36.0,29.8,30.17,SSW,203,2.0,2.0,78,0.00,,,0.00,meteohub,2013-04-21 08:32:00,
2013-04-21 01:37:00,35.8,29.7,30.16,SW,225,0.0,2.0,78,0.00,,,0.00,meteohub,2013-04-21 08:37:00,
2013-04-21 01:42:00,35.6,29.5,30.16,SW,225,0.0,2.0,78,0.00,,,0.00,meteohub,2013-04-21 08:42:00,
2013-04-21 01:47:00,35.4,29.5,30.16,SW,225,1.0,2.0,79,0.00,,,0.00,meteohub,2013-04-21 08:47:00,
2013-04-21 01:52:00,35.2,29.7,30.16,South,180,0.0,2.0,80,0.00,,,0.00,meteohub,2013-04-21 08:52:00,
2013-04-21 01:57:00,35.2,29.7,30.16,South,180,0.0,2.0,80,0.00,,,0.00,meteohub,2013-04-21 08:57:00,
2013-04-21 02:02:00,35.2,29.7,30.16,SW,225,1.0,2.0,80,0.00,,,0.00,meteohub,2013-04-21 09:02:00,
2013-04-21 02:07:00,35.1,29.5,30.16,SW,225,1.0,2.0,80,0.00,,,0.00,meteohub,2013-04-21 09:07:00,
2013-04-21 02:12:00,35.1,29.5,30.16,SW,225,1.0,2.0,80,0.00,,,0.00,meteohub,2013-04-21 09:12:00,
2013-04-21 02:17:00,34.9,29.3,30.16,SW,225,0.0,2.0,80,0.00,,,0.00,meteohub,2013-04-21 09:17:00,
2013-04-21 02:22:00,34.7,29.1,30.15,SE,135,1.0,2.0,80,0.00,,,0.00,meteohub,2013-04-21 09:22:00,
2013-04-21 02:27:00,34.5,29.3,30.15,SE,135,1.0,2.0,81,0.00,,,0.00,meteohub,2013-04-21 09:27:00,
2013-04-21 02:32:00,34.5,29.3,30.15,South,180,2.0,2.0,81,0.00,,,0.00,meteohub,2013-04-21 09:32:00,
2013-04-21 02:37:00,34.5,29.3,30.15,North,0,1.0,2.0,81,0.00,,,0.00,meteohub,2013-04-21 09:37:00,
2013-04-21 02:42:00,34.5,29.3,30.15,SW,225,2.0,2.0,81,0.00,,,0.00,meteohub,2013-04-21 09:42:00,
2013-04-21 02:47:00,34.5,29.3,30.15,South,180,1.0,2.0,81,0.00,,,0.00,meteohub,2013-04-21 09:47:00,
2013-04-21 02:52:00,34.3,29.1,30.14,SE,135,1.0,2.0,81,0.00,,,0.00,meteohub,2013-04-21 09:52:00,
2013-04-21 02:57:00,34.3,29.1,30.14,SE,135,1.0,2.0,81,0.00,,,0.00,meteohub,2013-04-21 09:57:00,
2013-04-21 03:02:00,34.2,29.3,30.15,SW,225,2.0,2.0,82,0.00,,,0.00,meteohub,2013-04-21 10:02:00,
2013-04-21 03:07:00,34.0,29.1,30.14,SE,135,1.0,2.0,82,0.00,,,0.00,meteohub,2013-04-21 10:07:00,
2013-04-21 03:12:00,33.8,28.9,30.15,SE,135,2.0,2.0,82,0.00,,,0.00,meteohub,2013-04-21 10:12:00,
2013-04-21 03:17:00,33.8,28.9,30.15,East,90,2.0,2.0,82,0.00,,,0.00,meteohub,2013-04-21 10:17:00,
2013-04-21 03:22:00,33.8,28.9,30.15,East,90,0.0,2.0,82,0.00,,,0.00,meteohub,2013-04-21 10:22:00,
2013-04-21 03:27:00,33.6,28.9,30.15,SE,135,1.0,2.0,83,0.00,,,0.00,meteohub,2013-04-21 10:27:00,
2013-04-21 03:32:00,33.4,28.8,30.15,SW,225,0.0,2.0,83,0.00,,,0.00,meteohub,2013-04-21 10:32:00,
2013-04-21 03:37:00,33.3,28.6,30.15,NW,315,2.0,2.0,83,0.00,,,0.00,meteohub,2013-04-21 10:37:00,
2013-04-21 03:42:00,33.1,28.4,30.15,East,90,1.0,2.0,83,0.00,,,0.00,meteohub,2013-04-21 10:42:00,
2013-04-21 03:47:00,32.9,28.2,30.15,NE,45,1.0,2.0,83,0.00,,,0.00,meteohub,2013-04-21 10:47:00,
2013-04-21 03:52:00,32.7,28.2,30.16,North,0,2.0,2.0,83,0.00,,,0.00,meteohub,2013-04-21 10:52:00,
2013-04-21 03:57:00,32.4,27.9,30.16,NE,45,2.0,3.0,83,0.00,,,0.00,meteohub,2013-04-21 10:57:00,
2013-04-21 04:02:00,32.2,27.7,30.16,NE,45,2.0,4.0,83,0.00,,,0.00,meteohub,2013-04-21 11:02:00,
2013-04-21 04:07:00,32.0,27.5,30.15,NE,45,3.0,4.0,83,0.00,,,0.00,meteohub,2013-04-21 11:07:00,
2013-04-21 04:12:00,31.8,27.5,30.15,NE,45,2.0,4.0,84,0.00,,,0.00,meteohub,2013-04-21 11:12:00,
2013-04-21 04:17:00,31.6,27.3,30.15,NE,45,2.0,3.0,84,0.00,,,0.00,meteohub,2013-04-21 11:17:00,
2013-04-21 04:22:00,31.5,27.1,30.15,East,90,4.0,4.0,84,0.00,,,0.00,meteohub,2013-04-21 11:22:00,
2013-04-21 04:27:00,31.3,27.0,30.15,East,90,2.0,4.0,84,0.00,,,0.00,meteohub,2013-04-21 11:27:00,
2013-04-21 04:32:00,31.1,26.8,30.15,East,90,2.0,4.0,84,0.00,,,0.00,meteohub,2013-04-21 11:32:00,
2013-04-21 04:37:00,31.1,26.8,30.15,NE,45,2.0,4.0,84,0.00,,,0.00,meteohub,2013-04-21 11:37:00,
2013-04-21 04:42:00,31.3,27.0,30.15,East,90,2.0,4.0,84,0.00,,,0.00,meteohub,2013-04-21 11:42:00,
2013-04-21 04:47:00,31.3,27.0,30.16,SE,135,4.0,4.0,84,0.00,,,0.00,meteohub,2013-04-21 11:47:00,
2013-04-21 04:52:00,31.3,27.0,30.15,NE,45,2.0,4.0,84,0.00,,,0.00,meteohub,2013-04-21 11:52:00,
2013-04-21 04:57:00,31.3,27.0,30.16,SE,135,2.0,4.0,84,0.00,,,0.00,meteohub,2013-04-21 11:57:00,
2013-04-21 05:02:00,31.1,26.8,30.15,East,90,2.0,4.0,84,0.00,,,0.00,meteohub,2013-04-21 12:02:00,
2013-04-21 05:07:00,31.1,27.1,30.15,SE,135,3.0,3.0,85,0.00,,,0.00,meteohub,2013-04-21 12:07:00,
2013-04-21 05:12:00,31.3,27.3,30.15,SE,135,3.0,3.0,85,0.00,,,0.00,meteohub,2013-04-21 12:12:00,
2013-04-21 05:17:00,31.3,27.3,30.15,NE,45,2.0,3.0,85,0.00,,,0.00,meteohub,2013-04-21 12:17:00,
2013-04-21 05:22:00,31.3,27.3,30.14,SE,135,2.0,3.0,85,0.00,,,0.00,meteohub,2013-04-21 12:22:00,
2013-04-21 05:27:00,31.5,27.5,30.14,SE,135,3.0,4.0,85,0.00,,,0.00,meteohub,2013-04-21 12:27:00,
2013-04-21 05:32:00,31.5,27.5,30.14,East,90,4.0,4.0,85,0.00,,,0.00,meteohub,2013-04-21 12:32:00,
2013-04-21 05:37:00,31.5,27.5,30.15,NE,45,2.0,4.0,85,0.00,,,0.00,meteohub,2013-04-21 12:37:00,
2013-04-21 05:42:00,31.5,27.5,30.15,East,90,2.0,4.0,85,0.00,,,0.00,meteohub,2013-04-21 12:42:00,
2013-04-21 05:47:00,31.3,27.3,30.15,East,90,2.0,4.0,85,0.00,,,0.00,meteohub,2013-04-21 12:47:00,
2013-04-21 05:52:00,31.3,27.3,30.15,East,90,2.0,3.0,85,0.00,,,0.00,meteohub,2013-04-21 12:52:00,
2013-04-21 05:57:00,31.3,27.0,30.15,NE,45,2.0,3.0,84,0.00,,,0.00,meteohub,2013-04-21 12:57:00,
2013-04-21 06:02:00,31.1,26.8,30.15,NE,45,0.0,2.0,84,0.00,,,0.00,meteohub,2013-04-21 13:02:00,
2013-04-21 06:07:00,30.9,26.6,30.15,East,90,2.0,2.0,84,0.00,,,0.00,meteohub,2013-04-21 13:07:00,
2013-04-21 06:12:00,30.9,26.6,30.15,SE,135,3.0,3.0,84,0.00,,,0.00,meteohub,2013-04-21 13:12:00,
2013-04-21 06:17:00,31.1,26.8,30.16,East,90,4.0,4.0,84,0.00,,,0.00,meteohub,2013-04-21 13:17:00,
2013-04-21 06:22:00,31.3,27.0,30.15,SE,135,3.0,4.0,84,0.00,,,0.00,meteohub,2013-04-21 13:22:00,
2013-04-21 06:27:00,31.3,27.0,30.15,SE,135,3.0,4.0,84,0.00,,,0.00,meteohub,2013-04-21 13:27:00,
2013-04-21 06:32:00,31.3,27.0,30.15,SE,135,3.0,4.0,84,0.00,,,0.00,meteohub,2013-04-21 13:32:00,
2013-04-21 06:37:00,31.3,27.0,30.16,East,90,3.0,4.0,84,0.00,,,0.00,meteohub,2013-04-21 13:37:00,
2013-04-21 06:42:00,31.5,27.5,30.16,East,90,4.0,4.0,85,0.00,,,0.00,meteohub,2013-04-21 13:42:00,
2013-04-21 06:47:00,31.8,27.9,30.15,ESE,113,6.0,6.0,85,0.00,,,0.00,meteohub,2013-04-21 13:47:00,
2013-04-21 06:52:00,32.0,27.7,30.16,SE,135,3.0,7.0,84,0.00,,,0.00,meteohub,2013-04-21 13:52:00,
2013-04-21 06:57:00,32.4,27.9,30.15,SE,135,3.0,7.0,83,0.00,,,0.00,meteohub,2013-04-21 13:57:00,
2013-04-21 07:02:00,32.7,28.2,30.16,SE,135,2.0,7.0,83,0.00,,,0.00,meteohub,2013-04-21 14:02:00,
2013-04-21 07:07:00,33.1,28.4,30.16,SW,225,2.0,6.0,83,0.00,,,0.00,meteohub,2013-04-21 14:07:00,
2013-04-21 07:12:00,33.4,28.8,30.15,South,180,3.0,6.0,83,0.00,,,0.00,meteohub,2013-04-21 14:12:00,
2013-04-21 07:17:00,34.0,29.1,30.15,SE,135,2.0,4.0,82,0.00,,,0.00,meteohub,2013-04-21 14:17:00,
2013-04-21 07:22:00,35.1,30.2,30.15,SE,135,3.0,3.0,82,0.00,,,0.00,meteohub,2013-04-21 14:22:00,
2013-04-21 07:27:00,36.3,31.1,30.16,East,90,3.0,4.0,81,0.00,,,0.00,meteohub,2013-04-21 14:27:00,
2013-04-21 07:32:00,37.8,33.4,30.16,SE,135,5.0,5.0,84,0.00,,,0.00,meteohub,2013-04-21 14:32:00,
2013-04-21 07:37:00,39.0,34.3,30.15,SE,135,3.0,5.0,83,0.00,,,0.00,meteohub,2013-04-21 14:37:00,
2013-04-21 07:42:00,39.9,34.5,30.15,SE,135,4.0,5.0,81,0.00,,,0.00,meteohub,2013-04-21 14:42:00,
2013-04-21 07:47:00,41.2,34.9,30.15,NE,45,4.0,5.0,78,0.00,,,0.00,meteohub,2013-04-21 14:47:00,
2013-04-21 07:52:00,42.3,35.2,30.15,East,90,3.0,4.0,76,0.00,,,0.00,meteohub,2013-04-21 14:52:00,
2013-04-21 07:57:00,43.0,34.9,30.15,East,90,3.0,6.0,73,0.00,,,0.00,meteohub,2013-04-21 14:57:00,
2013-04-21 08:02:00,43.9,35.4,30.16,ENE,68,4.0,6.0,72,0.00,,,0.00,meteohub,2013-04-21 15:02:00,
2013-04-21 08:07:00,45.1,36.0,30.17,NNE,23,4.0,6.0,70,0.00,,,0.00,meteohub,2013-04-21 15:07:00,
2013-04-21 08:12:00,45.9,36.3,30.15,East,90,4.0,5.0,69,0.00,,,0.00,meteohub,2013-04-21 15:12:00,
2013-04-21 08:17:00,45.5,35.2,30.16,SE,135,4.0,5.0,67,0.00,,,0.00,meteohub,2013-04-21 15:17:00,
2013-04-21 08:22:00,45.1,34.5,30.16,North,0,5.0,5.0,66,0.00,,,0.00,meteohub,2013-04-21 15:22:00,
2013-04-21 08:27:00,45.3,34.7,30.16,NE,45,5.0,6.0,66,0.00,,,0.00,meteohub,2013-04-21 15:27:00,
2013-04-21 08:32:00,44.8,33.3,30.16,NE,45,4.0,6.0,64,0.00,,,0.00,meteohub,2013-04-21 15:32:00,
2013-04-21 08:37:00,44.4,33.4,30.16,East,90,6.0,8.0,65,0.00,,,0.00,meteohub,2013-04-21 15:37:00,
2013-04-21 08:42:00,43.9,32.9,30.15,East,90,5.0,8.0,65,0.00,,,0.00,meteohub,2013-04-21 15:42:00,
2013-04-21 08:47:00,43.9,33.3,30.15,NE,45,5.0,7.0,66,0.00,,,0.00,meteohub,2013-04-21 15:47:00,
2013-04-21 08:52:00,44.2,34.0,30.15,East,90,4.0,7.0,67,0.00,,,0.00,meteohub,2013-04-21 15:52:00,
2013-04-21 08:57:00,45.3,35.1,30.15,NE,45,5.0,6.0,67,0.00,,,0.00,meteohub,2013-04-21 15:57:00,
2013-04-21 09:02:00,45.9,34.7,30.15,NE,45,2.0,6.0,65,0.00,,,0.00,meteohub,2013-04-21 16:02:00,
2013-04-21 09:07:00,46.9,35.4,30.14,East,90,5.0,6.0,64,0.00,,,0.00,meteohub,2013-04-21 16:07:00,
2013-04-21 09:12:00,47.7,35.6,30.15,NE,45,5.0,7.0,63,0.00,,,0.00,meteohub,2013-04-21 16:12:00,
2013-04-21 09:17:00,48.9,36.5,30.14,East,90,8.0,8.0,62,0.00,,,0.00,meteohub,2013-04-21 16:17:00,
2013-04-21 09:22:00,49.5,36.5,30.14,East,90,8.0,8.0,61,0.00,,,0.00,meteohub,2013-04-21 16:22:00,
2013-04-21 09:27:00,50.2,35.6,30.14,NE,45,6.0,8.0,57,0.00,,,0.00,meteohub,2013-04-21 16:27:00,
2013-04-21 09:32:00,50.7,35.1,30.14,SE,135,6.0,8.0,55,0.00,,,0.00,meteohub,2013-04-21 16:32:00,
2013-04-21 09:37:00,51.3,34.7,30.14,North,0,6.0,8.0,53,0.00,,,0.00,meteohub,2013-04-21 16:37:00,
2013-04-21 09:42:00,52.0,34.0,30.14,NE,45,7.0,8.0,50,0.00,,,0.00,meteohub,2013-04-21 16:42:00,
2013-04-21 09:47:00,52.9,33.8,30.13,NW,315,5.0,8.0,48,0.00,,,0.00,meteohub,2013-04-21 16:47:00,
2013-04-21 09:52:00,53.2,33.1,30.14,NW,315,1.0,8.0,46,0.00,,,0.00,meteohub,2013-04-21 16:52:00,
2013-04-21 09:57:00,53.4,32.0,30.13,NE,45,3.0,8.0,44,0.00,,,0.00,meteohub,2013-04-21 16:57:00,
2013-04-21 10:02:00,53.4,32.0,30.13,SW,225,3.0,5.0,44,0.00,,,0.00,meteohub,2013-04-21 17:02:00,
2013-04-21 10:07:00,53.6,32.2,30.13,NE,45,2.0,5.0,44,0.00,,,0.00,meteohub,2013-04-21 17:07:00,
2013-04-21 10:12:00,54.5,33.1,30.13,NW,315,2.0,5.0,44,0.00,,,0.00,meteohub,2013-04-21 17:12:00,
2013-04-21 10:17:00,55.4,33.8,30.13,SW,225,3.0,4.0,44,0.00,,,0.00,meteohub,2013-04-21 17:17:00,
2013-04-21 10:22:00,55.8,33.6,30.13,NE,45,4.0,4.0,43,0.00,,,0.00,meteohub,2013-04-21 17:22:00,
2013-04-21 10:27:00,56.7,34.3,30.13,SW,225,5.0,5.0,43,0.00,,,0.00,meteohub,2013-04-21 17:27:00,
2013-04-21 10:32:00,57.4,33.8,30.13,South,180,4.0,8.0,41,0.00,,,0.00,meteohub,2013-04-21 17:32:00,
2013-04-21 10:37:00,57.2,33.6,30.13,SW,225,4.0,8.0,41,0.00,,,0.00,meteohub,2013-04-21 17:37:00,
2013-04-21 10:42:00,56.7,33.3,30.13,NW,315,8.0,8.0,41,0.00,,,0.00,meteohub,2013-04-21 17:42:00,
2013-04-21 10:47:00,57.9,34.9,30.13,NW,315,2.0,8.0,42,0.00,,,0.00,meteohub,2013-04-21 17:47:00,
2013-04-21 10:52:00,58.3,34.0,30.14,NNW,338,4.0,8.0,40,0.00,,,0.00,meteohub,2013-04-21 17:52:00,
2013-04-21 10:57:00,58.1,34.5,30.14,South,180,7.0,11.0,41,0.00,,,0.00,meteohub,2013-04-21 17:57:00,
2013-04-21 11:02:00,57.4,34.5,30.13,WSW,248,7.0,11.0,42,0.00,,,0.00,meteohub,2013-04-21 18:02:00,
2013-04-21 11:07:00,56.5,34.9,30.13,East,90,5.0,11.0,44,0.00,,,0.00,meteohub,2013-04-21 18:07:00,
2013-04-21 11:12:00,56.1,35.1,30.13,WNW,293,6.0,10.0,45,0.00,,,0.00,meteohub,2013-04-21 18:12:00,
2013-04-21 11:17:00,55.8,34.7,30.13,North,0,4.0,7.0,45,0.00,,,0.00,meteohub,2013-04-21 18:17:00,
2013-04-21 11:22:00,55.6,34.5,30.13,NNE,23,4.0,7.0,45,0.00,,,0.00,meteohub,2013-04-21 18:22:00,
2013-04-21 11:27:00,55.4,34.9,30.14,WNW,293,6.0,10.0,46,0.00,,,0.00,meteohub,2013-04-21 18:27:00,
2013-04-21 11:32:00,55.6,35.6,30.12,WNW,293,10.0,11.0,47,0.00,,,0.00,meteohub,2013-04-21 18:32:00,
2013-04-21 11:37:00,55.8,36.3,30.12,SE,135,13.0,13.0,48,0.00,,,0.00,meteohub,2013-04-21 18:37:00,
2013-04-21 11:42:00,57.6,37.9,30.12,North,0,9.0,13.0,48,0.00,,,0.00,meteohub,2013-04-21 18:42:00,
2013-04-21 11:47:00,59.4,37.9,30.12,NW,315,8.0,13.0,45,0.00,,,0.00,meteohub,2013-04-21 18:47:00,
2013-04-21 11:52:00,60.1,37.6,30.12,SE,135,4.0,13.0,43,0.00,,,0.00,meteohub,2013-04-21 18:52:00,
2013-04-21 11:57:00,60.4,37.8,30.12,NW,315,4.0,12.0,43,0.00,,,0.00,meteohub,2013-04-21 18:57:00,
2013-04-21 12:02:00,61.5,37.6,30.12,NE,45,5.0,11.0,41,0.00,,,0.00,meteohub,2013-04-21 19:02:00,
2013-04-21 12:07:00,61.5,37.6,30.12,SE,135,4.0,11.0,41,0.00,,,0.00,meteohub,2013-04-21 19:07:00,
2013-04-21 12:12:00,62.2,39.4,30.13,West,270,3.0,11.0,43,0.00,,,0.00,meteohub,2013-04-21 19:12:00,
2013-04-21 12:17:00,62.2,38.3,30.13,NW,315,10.0,10.0,41,0.00,,,0.00,meteohub,2013-04-21 19:17:00,
2013-04-21 12:22:00,61.2,37.2,30.12,NW,315,11.0,14.0,41,0.00,,,0.00,meteohub,2013-04-21 19:22:00,
2013-04-21 12:27:00,60.8,38.1,30.12,NW,315,6.0,14.0,43,0.00,,,0.00,meteohub,2013-04-21 19:27:00,
2013-04-21 12:32:00,61.2,37.9,30.13,SE,135,10.0,14.0,42,0.00,,,0.00,meteohub,2013-04-21 19:32:00,
2013-04-21 12:37:00,61.2,37.9,30.12,West,270,3.0,11.0,42,0.00,,,0.00,meteohub,2013-04-21 19:37:00,
2013-04-21 12:42:00,61.0,37.8,30.12,SE,135,3.0,11.0,42,0.00,,,0.00,meteohub,2013-04-21 19:42:00,
2013-04-21 12:47:00,61.2,38.5,30.12,NW,315,9.0,16.0,43,0.00,,,0.00,meteohub,2013-04-21 19:47:00,
2013-04-21 12:52:00,61.5,39.4,30.12,SW,225,6.0,16.0,44,0.00,,,0.00,meteohub,2013-04-21 19:52:00,
2013-04-21 12:57:00,61.5,38.3,30.12,NW,315,5.0,14.0,42,0.00,,,0.00,meteohub,2013-04-21 19:57:00,
2013-04-21 13:02:00,61.0,37.8,30.12,NE,45,15.0,15.0,42,0.00,,,0.00,meteohub,2013-04-21 20:02:00,
2013-04-21 13:07:00,60.6,38.7,30.11,NW,315,13.0,15.0,44,0.00,,,0.00,meteohub,2013-04-21 20:07:00,
2013-04-21 13:12:00,60.1,37.6,30.12,North,0,11.0,16.0,43,0.00,,,0.00,meteohub,2013-04-21 20:12:00,
2013-04-21 13:17:00,59.0,37.0,30.12,NW,315,11.0,16.0,44,0.00,,,0.00,meteohub,2013-04-21 20:17:00,
2013-04-21 13:22:00,59.4,39.7,30.11,SW,225,4.0,20.0,48,0.00,,,0.00,meteohub,2013-04-21 20:22:00,
2013-04-21 13:27:00,60.1,38.7,30.11,SW,225,6.0,20.0,45,0.00,,,0.00,meteohub,2013-04-21 20:27:00,
2013-04-21 13:32:00,60.1,38.1,30.11,SW,225,4.0,20.0,44,0.00,,,0.00,meteohub,2013-04-21 20:32:00,
2013-04-21 13:37:00,59.9,38.5,30.11,West,270,4.0,14.0,45,0.00,,,0.00,meteohub,2013-04-21 20:37:00,
2013-04-21 13:42:00,60.3,38.8,30.10,NW,315,8.0,17.0,45,0.00,,,0.00,meteohub,2013-04-21 20:42:00,
2013-04-21 13:47:00,60.6,38.7,30.11,NW,315,9.0,17.0,44,0.00,,,0.00,meteohub,2013-04-21 20:47:00,
2013-04-21 13:52:00,61.2,39.0,30.11,South,180,5.0,16.0,44,0.00,,,0.00,meteohub,2013-04-21 20:52:00,
2013-04-21 13:57:00,61.0,37.8,30.11,North,0,11.0,15.0,42,0.00,,,0.00,meteohub,2013-04-21 20:57:00,
2013-04-21 14:02:00,60.6,38.7,30.11,WNW,293,15.0,15.0,44,0.00,,,0.00,meteohub,2013-04-21 21:02:00,
2013-04-21 14:07:00,60.3,38.8,30.11,SW,225,9.0,15.0,45,0.00,,,0.00,meteohub,2013-04-21 21:07:00,
2013-04-21 14:12:00,60.4,39.0,30.11,North,0,14.0,18.0,45,0.00,,,0.00,meteohub,2013-04-21 21:12:00,
2013-04-21 14:17:00,60.6,38.7,30.11,SW,225,11.0,18.0,44,0.00,,,0.00,meteohub,2013-04-21 21:17:00,
2013-04-21 14:22:00,60.8,38.7,30.11,NW,315,12.0,18.0,44,0.00,,,0.00,meteohub,2013-04-21 21:22:00,
2013-04-21 14:27:00,60.8,38.1,30.10,NW,315,7.0,14.0,43,0.00,,,0.00,meteohub,2013-04-21 21:27:00,
2013-04-21 14:32:00,61.3,38.7,30.11,NE,45,6.0,12.0,43,0.00,,,0.00,meteohub,2013-04-21 21:32:00,
2013-04-21 14:37:00,61.9,39.7,30.11,West,270,10.0,12.0,44,0.00,,,0.00,meteohub,2013-04-21 21:37:00,
2013-04-21 14:42:00,61.5,38.8,30.11,NW,315,6.0,17.0,43,0.00,,,0.00,meteohub,2013-04-21 21:42:00,
2013-04-21 14:47:00,60.6,37.9,30.11,SW,225,12.0,17.0,43,0.00,,,0.00,meteohub,2013-04-21 21:47:00,
2013-04-21 14:52:00,58.6,37.9,30.11,NW,315,8.0,17.0,46,0.00,,,0.00,meteohub,2013-04-21 21:52:00,
2013-04-21 14:57:00,58.6,40.1,30.12,South,180,8.0,17.0,50,0.00,,,0.00,meteohub,2013-04-21 21:57:00,
2013-04-21 15:02:00,59.0,39.9,30.11,South,180,5.0,17.0,49,0.00,,,0.00,meteohub,2013-04-21 22:02:00,
2013-04-21 15:07:00,58.3,39.2,30.12,NE,45,6.0,11.0,49,0.00,,,0.00,meteohub,2013-04-21 22:07:00,
2013-04-21 15:12:00,58.1,39.6,30.12,West,270,8.0,10.0,50,0.00,,,0.00,meteohub,2013-04-21 22:12:00,
2013-04-21 15:17:00,57.7,39.2,30.11,South,180,8.0,8.0,50,0.00,,,0.00,meteohub,2013-04-21 22:17:00,
2013-04-21 15:22:00,56.8,39.4,30.11,NW,315,5.0,9.0,52,0.00,,,0.00,meteohub,2013-04-21 22:22:00,
2013-04-21 15:27:00,56.3,38.8,30.11,SSW,203,5.0,9.0,52,0.00,,,0.00,meteohub,2013-04-21 22:27:00,
2013-04-21 15:32:00,55.9,39.0,30.11,NW,315,6.0,13.0,53,0.00,,,0.00,meteohub,2013-04-21 22:32:00,
2013-04-21 15:37:00,57.0,40.5,30.11,NW,315,7.0,13.0,54,0.00,,,0.00,meteohub,2013-04-21 22:37:00,
2013-04-21 15:42:00,59.0,40.8,30.11,SE,135,8.0,11.0,51,0.00,,,0.00,meteohub,2013-04-21 22:42:00,
2013-04-21 15:47:00,60.1,40.8,30.12,North,0,3.0,11.0,49,0.00,,,0.00,meteohub,2013-04-21 22:47:00,
2013-04-21 15:52:00,59.2,38.5,30.11,East,90,5.0,9.0,46,0.00,,,0.00,meteohub,2013-04-21 22:52:00,
2013-04-21 15:57:00,58.3,39.2,30.11,South,180,10.0,16.0,49,0.00,,,0.00,meteohub,2013-04-21 22:57:00,
2013-04-21 16:02:00,57.2,39.2,30.11,South,180,8.0,16.0,51,0.00,,,0.00,meteohub,2013-04-21 23:02:00,
2013-04-21 16:07:00,56.3,39.4,30.11,SE,135,4.0,14.0,53,0.00,,,0.00,meteohub,2013-04-21 23:07:00,
2013-04-21 16:12:00,55.9,39.0,30.10,SE,135,5.0,10.0,53,0.00,,,0.00,meteohub,2013-04-21 23:12:00,
2013-04-21 16:17:00,55.6,39.2,30.11,North,0,8.0,10.0,54,0.00,,,0.00,meteohub,2013-04-21 23:17:00,
2013-04-21 16:22:00,55.2,39.4,30.11,SW,225,7.0,12.0,55,0.00,,,0.00,meteohub,2013-04-21 23:22:00,
2013-04-21 16:27:00,55.0,39.6,30.11,SE,135,4.0,12.0,56,0.00,,,0.00,meteohub,2013-04-21 23:27:00,
2013-04-21 16:32:00,54.9,39.4,30.11,NW,315,8.0,12.0,56,0.00,,,0.00,meteohub,2013-04-21 23:32:00,
2013-04-21 16:37:00,54.9,40.3,30.11,West,270,5.0,11.0,58,0.00,,,0.00,meteohub,2013-04-21 23:37:00,
2013-04-21 16:42:00,54.9,40.3,30.12,North,0,14.0,14.0,58,0.00,,,0.00,meteohub,2013-04-21 23:42:00,
2013-04-21 16:47:00,54.9,39.9,30.11,South,180,7.0,14.0,57,0.00,,,0.00,meteohub,2013-04-21 23:47:00,
2013-04-21 16:52:00,54.9,39.9,30.11,East,90,8.0,14.0,57,0.00,,,0.00,meteohub,2013-04-21 23:52:00,
2013-04-21 16:57:00,55.0,40.1,30.11,NE,45,7.0,14.0,57,0.00,,,0.00,meteohub,2013-04-21 23:57:00,
2013-04-21 17:02:00,54.9,39.9,30.11,East,90,4.0,9.0,57,0.00,,,0.00,meteohub,2013-04-22 00:02:00,
2013-04-21 17:07:00,55.4,40.5,30.11,SSE,158,5.0,9.0,57,0.00,,,0.00,meteohub,2013-04-22 00:07:00,
2013-04-21 17:12:00,55.6,40.1,30.11,NW,315,4.0,9.0,56,0.00,,,0.00,meteohub,2013-04-22 00:12:00,
2013-04-21 17:17:00,56.1,40.6,30.11,South,180,7.0,11.0,56,0.00,,,0.00,meteohub,2013-04-22 00:17:00,
2013-04-21 17:22:00,56.7,40.6,30.11,West,270,3.0,11.0,55,0.00,,,0.00,meteohub,2013-04-22 00:22:00,
2013-04-21 17:27:00,57.0,41.0,30.11,East,90,7.0,11.0,55,0.00,,,0.00,meteohub,2013-04-22 00:27:00,
2013-04-21 17:32:00,56.8,40.5,30.11,North,0,17.0,17.0,54,0.00,,,0.00,meteohub,2013-04-22 00:32:00,
2013-04-21 17:37:00,56.7,40.3,30.11,SW,225,7.0,21.0,54,0.00,,,0.00,meteohub,2013-04-22 00:37:00,
2013-04-21 17:42:00,56.8,40.5,30.10,South,180,8.0,21.0,54,0.00,,,0.00,meteohub,2013-04-22 00:42:00,
2013-04-21 17:47:00,56.7,40.3,30.11,NE,45,6.0,21.0,54,0.00,,,0.00,meteohub,2013-04-22 00:47:00,
2013-04-21 17:52:00,56.7,40.3,30.11,SW,225,8.0,9.0,54,0.00,,,0.00,meteohub,2013-04-22 00:52:00,
2013-04-21 17:57:00,56.3,39.9,30.11,East,90,6.0,10.0,54,0.00,,,0.00,meteohub,2013-04-22 00:57:00,
2013-04-21 18:02:00,55.9,39.6,30.11,SSW,203,4.0,10.0,54,0.00,,,0.00,meteohub,2013-04-22 01:02:00,
2013-04-21 18:07:00,55.8,39.9,30.11,South,180,6.0,10.0,55,0.00,,,0.00,meteohub,2013-04-22 01:07:00,
2013-04-21 18:12:00,55.2,39.7,30.11,South,180,6.0,9.0,56,0.00,,,0.00,meteohub,2013-04-22 01:12:00,
2013-04-21 18:17:00,54.9,39.4,30.11,SW,225,8.0,11.0,56,0.00,,,0.00,meteohub,2013-04-22 01:17:00,
2013-04-21 18:22:00,54.3,39.4,30.11,SW,225,8.0,11.0,57,0.00,,,0.00,meteohub,2013-04-22 01:22:00,
2013-04-21 18:27:00,54.1,39.7,30.11,NW,315,5.0,11.0,58,0.00,,,0.00,meteohub,2013-04-22 01:27:00,
2013-04-21 18:32:00,53.6,39.2,30.11,SSW,203,4.0,9.0,58,0.00,,,0.00,meteohub,2013-04-22 01:32:00,
2013-04-21 18:37:00,53.1,39.6,30.11,WNW,293,8.0,10.0,60,0.00,,,0.00,meteohub,2013-04-22 01:37:00,
2013-04-21 18:42:00,52.9,39.4,30.11,SE,135,2.0,10.0,60,0.00,,,0.00,meteohub,2013-04-22 01:42:00,
2013-04-21 18:47:00,52.3,39.4,30.11,SW,225,3.0,8.0,61,0.00,,,0.00,meteohub,2013-04-22 01:47:00,
2013-04-21 18:52:00,52.2,39.2,30.10,South,180,5.0,8.0,61,0.00,,,0.00,meteohub,2013-04-22 01:52:00,
2013-04-21 18:57:00,52.0,39.4,30.11,South,180,4.0,7.0,62,0.00,,,0.00,meteohub,2013-04-22 01:57:00,
2013-04-21 19:02:00,51.8,39.2,30.11,South,180,4.0,7.0,62,0.00,,,0.00,meteohub,2013-04-22 02:02:00,
2013-04-21 19:07:00,51.4,39.7,30.10,SW,225,4.0,5.0,64,0.00,,,0.00,meteohub,2013-04-22 02:07:00,
2013-04-21 19:12:00,51.3,39.9,30.11,SSE,158,5.0,8.0,65,0.00,,,0.00,meteohub,2013-04-22 02:12:00,
2013-04-21 19:17:00,51.1,39.7,30.11,West,270,4.0,8.0,65,0.00,,,0.00,meteohub,2013-04-22 02:17:00,
2013-04-21 19:22:00,50.9,39.6,30.11,NW,315,5.0,8.0,65,0.00,,,0.00,meteohub,2013-04-22 02:22:00,
2013-04-21 19:27:00,50.7,39.7,30.11,NE,45,4.0,8.0,66,0.00,,,0.00,meteohub,2013-04-22 02:27:00,
2013-04-21 19:32:00,50.4,39.4,30.12,NW,315,5.0,7.0,66,0.00,,,0.00,meteohub,2013-04-22 02:32:00,
2013-04-21 19:37:00,50.4,39.4,30.11,WNW,293,6.0,8.0,66,0.00,,,0.00,meteohub,2013-04-22 02:37:00,
2013-04-21 19:42:00,50.2,39.6,30.11,South,180,4.0,8.0,67,0.00,,,0.00,meteohub,2013-04-22 02:42:00,
2013-04-21 19:47:00,50.0,39.6,30.11,NE,45,4.0,8.0,67,0.00,,,0.00,meteohub,2013-04-22 02:47:00,
2013-04-21 19:52:00,49.8,40.1,30.12,NE,45,4.0,8.0,69,0.00,,,0.00,meteohub,2013-04-22 02:52:00,
2013-04-21 19:57:00,49.5,39.7,30.12,West,270,7.0,7.0,69,0.00,,,0.00,meteohub,2013-04-22 02:57:00,
2013-04-21 20:02:00,49.3,39.6,30.12,NW,315,6.0,7.0,69,0.00,,,0.00,meteohub,2013-04-22 03:02:00,
2013-04-21 20:07:00,49.1,39.7,30.12,NW,315,2.0,7.0,70,0.00,,,0.00,meteohub,2013-04-22 03:07:00,
2013-04-21 20:12:00,48.9,39.6,30.12,North,0,2.0,7.0,70,0.00,,,0.00,meteohub,2013-04-22 03:12:00,
2013-04-21 20:17:00,48.7,39.7,30.12,North,0,3.0,7.0,71,0.00,,,0.00,meteohub,2013-04-22 03:17:00,
2013-04-21 20:22:00,48.6,39.6,30.12,East,90,2.0,4.0,71,0.00,,,0.00,meteohub,2013-04-22 03:22:00,
2013-04-21 20:27:00,48.4,39.4,30.12,South,180,2.0,4.0,71,0.00,,,0.00,meteohub,2013-04-22 03:27:00,
2013-04-21 20:32:00,48.2,39.2,30.12,West,270,4.0,4.0,71,0.00,,,0.00,meteohub,2013-04-22 03:32:00,
2013-04-21 20:37:00,48.0,39.7,30.12,North,0,3.0,5.0,73,0.00,,,0.00,meteohub,2013-04-22 03:37:00,
2013-04-21 20:42:00,48.0,39.7,30.12,NE,45,8.0,8.0,73,0.00,,,0.00,meteohub,2013-04-22 03:42:00,
2013-04-21 20:47:00,47.8,39.6,30.12,SE,135,2.0,8.0,73,0.00,,,0.00,meteohub,2013-04-22 03:47:00,
2013-04-21 20:52:00,47.7,39.4,30.13,NE,45,4.0,8.0,73,0.00,,,0.00,meteohub,2013-04-22 03:52:00,
2013-04-21 20:57:00,47.5,39.2,30.13,North,0,2.0,8.0,73,0.00,,,0.00,meteohub,2013-04-22 03:57:00,
2013-04-21 21:01:00,47.3,39.0,30.13,West,270,4.0,5.0,73,0.00,,,0.00,meteohub,2013-04-22 04:01:00,
2013-04-21 21:02:00,47.3,39.0,30.13,West,270,4.0,5.0,73,0.00,,,0.00,meteohub,2013-04-22 04:02:00,
2013-04-21 21:03:00,47.3,39.4,30.13,WNW,293,6.0,6.0,74,0.00,,,0.00,meteohub,2013-04-22 04:03:00,
2013-04-21 21:09:00,47.3,39.4,30.14,NW,315,6.0,6.0,74,0.00,,,0.00,meteohub,2013-04-22 04:09:00,
2013-04-21 21:11:00,47.3,39.4,30.13,NW,315,4.0,7.0,74,0.00,,,0.00,meteohub,2013-04-22 04:11:00,
2013-04-21 21:17:00,47.3,39.0,30.14,NW,315,3.0,7.0,73,0.00,,,0.00,meteohub,2013-04-22 04:17:00,
2013-04-21 21:23:00,46.9,38.7,30.14,SW,225,4.0,7.0,73,0.00,,,0.00,meteohub,2013-04-22 04:23:00,
2013-04-21 21:29:00,46.9,38.7,30.14,West,270,5.0,6.0,73,0.00,,,0.00,meteohub,2013-04-22 04:29:00,
2013-04-21 21:36:00,46.8,38.5,30.14,NE,45,3.0,5.0,73,0.00,,,0.00,meteohub,2013-04-22 04:36:00,
2013-04-21 21:42:00,46.8,38.5,30.15,NW,315,2.0,5.0,73,0.00,,,0.00,meteohub,2013-04-22 04:42:00,
2013-04-21 21:47:00,46.2,38.1,30.15,West,270,3.0,5.0,73,0.00,,,0.00,meteohub,2013-04-22 04:47:00,
2013-04-21 21:52:00,45.9,37.8,30.15,North,0,3.0,4.0,73,0.00,,,0.00,meteohub,2013-04-22 04:52:00,
2013-04-21 21:57:00,45.5,37.8,30.15,North,0,2.0,4.0,74,0.00,,,0.00,meteohub,2013-04-22 04:57:00,
2013-04-21 22:02:00,45.5,38.1,30.15,NW,315,2.0,5.0,75,0.00,,,0.00,meteohub,2013-04-22 05:02:00,
2013-04-21 22:07:00,45.1,37.9,30.15,NW,315,2.0,5.0,76,0.00,,,0.00,meteohub,2013-04-22 05:07:00,
2013-04-21 22:12:00,45.0,38.1,30.15,NW,315,4.0,5.0,77,0.00,,,0.00,meteohub,2013-04-22 05:12:00,
2013-04-21 22:17:00,44.6,38.1,30.16,West,270,1.0,4.0,78,0.00,,,0.00,meteohub,2013-04-22 05:17:00,
2013-04-21 22:22:00,44.2,38.1,30.16,North,0,1.0,4.0,79,0.00,,,0.00,meteohub,2013-04-22 05:22:00,
2013-04-21 22:27:00,44.1,37.9,30.16,SW,225,1.0,4.0,79,0.00,,,0.00,meteohub,2013-04-22 05:27:00,
2013-04-21 22:32:00,43.9,37.8,30.16,NW,315,2.0,2.0,79,0.00,,,0.00,meteohub,2013-04-22 05:32:00,
2013-04-21 22:37:00,43.5,37.4,30.16,West,270,3.0,3.0,79,0.00,,,0.00,meteohub,2013-04-22 05:37:00,
2013-04-21 22:42:00,43.5,37.8,30.16,NW,315,4.0,4.0,80,0.00,,,0.00,meteohub,2013-04-22 05:42:00,
2013-04-21 22:47:00,43.5,37.8,30.16,SW,225,1.0,4.0,80,0.00,,,0.00,meteohub,2013-04-22 05:47:00,
2013-04-21 22:52:00,43.5,37.4,30.16,NE,45,3.0,4.0,79,0.00,,,0.00,meteohub,2013-04-22 05:52:00,
2013-04-21 22:57:00,43.5,37.4,30.16,North,0,5.0,5.0,79,0.00,,,0.00,meteohub,2013-04-22 05:57:00,
2013-04-21 23:02:00,43.5,37.4,30.16,North,0,3.0,5.0,79,0.00,,,0.00,meteohub,2013-04-22 06:02:00,
2013-04-21 23:07:00,43.7,37.2,30.16,NNE,23,2.0,5.0,78,0.00,,,0.00,meteohub,2013-04-22 06:07:00,
2013-04-21 23:12:00,43.7,37.0,30.16,WNW,293,4.0,5.0,77,0.00,,,0.00,meteohub,2013-04-22 06:12:00,
2013-04-21 23:17:00,43.9,36.9,30.16,NW,315,2.0,4.0,76,0.00,,,0.00,meteohub,2013-04-22 06:17:00,
2013-04-21 23:22:00,44.1,36.7,30.16,NNE,23,4.0,4.0,75,0.00,,,0.00,meteohub,2013-04-22 06:22:00,
2013-04-21 23:27:00,44.1,36.3,30.17,NW,315,5.0,5.0,74,0.00,,,0.00,meteohub,2013-04-22 06:27:00,
2013-04-21 23:32:00,43.9,36.1,30.17,North,0,7.0,8.0,74,0.00,,,0.00,meteohub,2013-04-22 06:32:00,
2013-04-21 23:37:00,43.9,35.8,30.17,NE,45,4.0,8.0,73,0.00,,,0.00,meteohub,2013-04-22 06:37:00,
2013-04-21 23:42:00,43.9,35.4,30.17,NE,45,5.0,8.0,72,0.00,,,0.00,meteohub,2013-04-22 06:42:00,
2013-04-21 23:47:00,43.9,35.4,30.17,North,0,5.0,7.0,72,0.00,,,0.00,meteohub,2013-04-22 06:47:00,
2013-04-21 23:52:00,43.9,35.1,30.17,East,90,4.0,6.0,71,0.00,,,0.00,meteohub,2013-04-22 06:52:00,
2013-04-21 23:57:00,43.9,35.1,30.17,NW,315,2.0,6.0,71,0.00,,,0.00,meteohub,2013-04-22 06:57:00,